This demonstration page uses our WeatherBlox Daily Observations layout. Learn more.

Left ArrowRight Arrow

Hourly Observations for February 10, 2015

Temp ( °F °C ) Dew Point ( °F °C ) Humidity (%) Winds ( mph kmh ) Pressure ( in mb ) Visibility ( mi km ) Precip ( " mm )
12:53 am 00:53 Clear 46 7.8 43 6.1 89 89 NNW 3 6 30.24 1024 10 16 0.00 0.00
1:53 am 01:53 Clear 45 7.2 41 5 86 86 NW 6 9 30.26 1025 10 16 0.00 0.00
2:53 am 02:53 Clear 45 7.2 41 5 86 86 NW 5 7 30.25 1024 10 16 0.00 0.00
3:53 am 03:53 Clear 45 7.2 40 4.4 83 83 NW 5 7 30.23 1024 10 16 0.00 0.00
4:53 am 04:53 Clear 43 6.1 40 4.4 89 89 NW 3 6 30.24 1024 10 16 0.00 0.00
5:53 am 05:53 Clear 41 5 38 3.3 89 89 N 5 7 30.24 1024 10 16 0.00 0.00
6:53 am 06:53 Clear 41 5 38 3.3 89 89 Calm 30.25 1024 10 16 0.00 0.00
7:53 am 07:53 Sunny 45 7.2 39 3.9 80 80 NNW 5 7 30.25 1025 10 16 0.00 0.00
8:53 am 08:53 Sunny 50 10 41 5 71 71 NNW 5 7 30.24 1024 10 16 0.00 0.00
9:53 am 09:53 Sunny 53 11.7 41 5 64 64 NNW 5 7 30.24 1024 10 16 0.00 0.00
10:53 am 10:53 Sunny 59 15 41 5 51 51 N 14 22 30.22 1023 10 16 0.00 0.00
11:53 am 11:53 Sunny 61 16.1 41 5 48 48 N 8 13 30.18 1022 10 16 0.00 0.00
12:53 pm 12:53 Sunny 63 17.2 38 3.3 40 40 NNW 10 17 30.14 1021 10 16 0.00 0.00
1:53 pm 13:53 Sunny 66 18.9 38 3.3 36 36 NNW 9 15 30.11 1020 10 16 0.00 0.00
2:53 pm 14:53 Sunny 66 18.9 38 3.3 36 36 N 12 19 30.10 1019 10 16 0.00 0.00
3:53 pm 15:53 Sunny 66 18.9 38 3.3 36 36 N 8 13 30.08 1019 10 16 0.00 0.00
4:53 pm 16:53 Sunny 65 18.3 40 4.4 40 40 N 7 11 30.09 1019 10 16 0.00 0.00
5:53 pm 17:53 Clear 61 16.1 40 4.4 46 46 NNW 6 9 30.09 1019 10 16 0.00 0.00
6:53 pm 18:53 Clear 60 15.6 38 3.3 44 44 NNW 6 9 30.09 1019 10 16 0.00 0.00
7:53 pm 19:53 Clear 56 13.3 40 4.4 55 55 NW 5 7 30.11 1020 10 16 0.00 0.00
8:53 pm 20:53 Clear 52 11.1 41 5 66 66 N 6 9 30.11 1020 10 16 0.00 0.00
9:53 pm 21:53 Clear 51 10.6 40 4.4 66 66 NW 5 7 30.12 1020 10 16 0.00 0.00
10:53 pm 22:53 Clear 48 8.9 42 5.6 80 80 N 3 6 30.12 1020 10 16 0.00 0.00
11:53 pm 23:53 Clear 50 10 42 5.6 74 74 N 3 6 30.11 1020 10 16 0.00 0.00

Powered by AerisWeather